sat.trackr.live / text

‹ back to catalog

STARLINK-36602

NORAD 67849 · 2026-033AE

PAYLOAD ACTIVE UNKNOWN

§ Identity

Operator
Country
US
Launch date
2026-02-16
Launch site
AFETR
Launch vehicle
Mass (kg)
RCS (m²)

Purposes: comms

External: N2YO · Heavens-Above · Gunter

§ Orbital elements

Epoch: 2026-09-19T06:19:55.062336Z

Period
94.27 min
Inclination
42.9975°
Eccentricity
0.0000944
Mean motion
15.27583918 rev/d
Perigee alt
482.4 km
Apogee alt
483.7 km
Semi-major
6,861.2 km
B*
3.1247e-4
RAAN
254.2856°
Arg perigee
273.2801°
Mean anomaly
86.7943°
Rev number
3,427

§ Raw data

STARLINK-366021 67849U 26033AE  26262.26383174  .00008347  00000+0  31247-3 0  99912 67849  42.9975 254.2856 0000944 273.2801  86.7943 15.27583918 34276

JSON: /api/v1/satellites/67849 · /tle

For live sub-satellite position, see the globe view (requires WebGL).

§ Visibility from observer

Set your observer location to see the next 7 days of passes ≥ 10°. The values pass through the URL so the page stays shareable.

No JS? Fill the form by hand. The geolocation button needs JavaScript.